Torna al catalogo

GLOBALSTAR M023

AttivoComunicazioniLEO
NORAD 25621·PAYLOAD·🇺🇸 United States

Lanciato Feb 9, 1999 da Baikonur Cosmodrome

Loading…

Prossimi Passaggi (prossime 24 ore)

TLE

AggiornatoSource: Space-Track

Epoca: Sep 14, 2026, 20:30 UTC

1 25621U 99004A   26257.85426062 -.00000085  00000-0  10609-3 0  9996
2 25621  52.0092 108.9315 0010520  54.4149 330.5275 12.62534403273162

Traccia GLOBALSTAR M023 in tempo reale con AllMySat

Download on the App Store